Bridger, MT (59014)

6:44 AM MDT on August 29, 2015 (GMT -0600)
Clear Creek Rd, Roberts, MT | | Change Station
CLOSE
Current Station
Personal Weather Station
Location: Roberts, MT
Elevation: 4455 ft
Nearby Weather Stations
Active Advisory: Fire Weather Warning

Elev 4455 ft 45.38 °N, 109.14 °W | Updated 36 seconds ago

Clear
Clear
55.4 °F
Feels Like 55.4 °F
N
3.6
Wind Variable Wind from SSW
Gusts 4.9 mph

Today
High -- | Low -- °F
--% Chance of Precip.
Yesterday
High -- | Low -- °F
Precip. -- in
6:33 AM 7:58 PM
Full, 100% visible
Pressure 29.89 in
Visibility 10.0 miles
Clouds Few 15000 ft
Scattered Clouds 23000 ft
Dew Point 44 °F
Humidity 65%
Rainfall 0.00 in
Snow Depth Not available.
UV 0.0 out of 12
Pollen 9.50 out of 12
Air Quality Not available.
Flu Activity Not available.
METAR KBIL 291153Z 20004KT 10SM FEW150 SCT230 18/06 A3000 RMK AO2 SLP121 T01780056 10239 20172 53003
Pressure 29.89 in
Visibility 10.0 miles
Clouds Few 15000 ft
Scattered Clouds 23000 ft
Dew Point 44 °F
Humidity 65%
Rainfall 0.00 in
Snow Depth Not available.
UV 0.0 out of 12
Pollen 9.50 out of 12
Air Quality Not available.
Flu Activity Not available.
METAR KBIL 291153Z 20004KT 10SM FEW150 SCT230 18/06 A3000 RMK AO2 SLP121 T01780056 10239 20172 53003

10-Day Weather Forecast

×

Almanac

Astronomy

Aug. 29, 2015 Rise Set
Actual Time
Civil Twilight
Nautical Twilight
Astronomical Twilight
Moon
Length of Visible Light
Length of Day
Tomorrow will be .
, % of the Moon is Illuminated

Today's Extremes

State Highs State Lows

Community

WunderPhotos

Upload Photos

1,850,677 photos uploaded!

WunderBlogs® & News

Nearby

Air Quality

  Air Quality AQ Index Pollutant
Not available.

Snow Depth

Station Depth Elevation

Earthquake Activity

City Distance Mag. Time & Date
Minimum magnitude displayed is 2.5.

Coastal Water Temperatures

Place Temperature

Stations

Nearby Weather Stations

Station Location Temp. Windchill Dew Point Humidity Wind Precip. Elev Updated Type
                   
Fire Weather Warning
Statement as of 3:31 AM MDT on August 29, 2015

... Red flag warning remains in effect from noon today to 9 PM MDT
this evening...

* impacts: low humidities... hot temperatures... and strong gusty
winds will create critical fire weather conditions.

* Affected area:
   in south central Mt... fire weather zones 123... 124... 125... 126...
   127 and 128.

* Counties affected:
   in central Mt... Golden Valley... Musselshell... Wheatland.
   In south central Mt... Carbon... park... Stillwater... Sweet Grass
                         Yellowstone.
   In southwest Mt... Gallatin.

* Wind: southwest 10 to 20 mph with gusts 25 to 35 mph.

* Humidity: 10 to 15 percent.

* Temperatures: in the 90s.

Precautionary/preparedness actions...

Be very careful with any open flames. Check with local officials
before conducting any burning.